Content
SEND FEEDBACK

Daily
Averages
Monthly
Summary
United States of America

CHESTERFIELD, MISSOURI


Home > North America > United States > Missouri
Elevation: 170 meters     Latitude: 38 41N     Longitude: 090 31W

WEATHER
 
SELECT A DAY
Number of Records: 201,471;   Date Range: 1/1/95 - 4/16/14
 
SHARE

PRINT THIS DATA

[ ← Previous Day ]
WEATHER ALMANAC - 9 JANUARY, 2013
[ Next Day → ]
[ °F ]   °C
Weather ElementAverageHighLow
Temperature9.3 °C14.4 °C (1:51 pm)4.4 °C (9:51 pm)
Dewpoint1.3 °C5.6 °C (2:51 am)-1.7 °C (4:51 pm)
Humidity59.3 %82 % (5:51 am)39 % (1:51 pm)
Barometer1029.1 hPa1032.5 hPa (9:51 pm)1023.4 hPa (1:51 am)
Wind Speed11.1 km/h20.4 km/h (3:51 am)
Weather ElementAverage
Visibility16.1 km
Wind DirectionSW (226.1 °)

Weather ElementTotal
Precipitation---
Heating Degree Days8.9 (Base 18.3)
Averaged from 23 records on 9 January, 2013
WEATHER CONDITIONS BREAKOUT
WIND DIRECTION BREAKOUT
WEATHER BY HOUR - 9 JANUARY, 2013
[ °F ]   °C
Local TimeTemperatureDewpointHumidityBarometerVisibilityWind DirectionWind SpeedGust SpeedPrecipitationEventsConditions
1:51 AM9.4 °C3.3 °C66 %1023.4 hPa16.1 kmSW (220°)13 km/h0 mmOvercast
2:51 AM10 °C5.6 °C74 %1024 hPa16.1 kmWSW (240°)18.5 km/h0 mmRainLight Rain
3:51 AM10.6 °C5.6 °C71 %1024.4 hPa16.1 kmWest (260°)20.4 km/h0 mmOvercast
4:51 AM8.9 °C5 °C77 %1025.4 hPa16.1 kmWest (280°)11.1 km/hMostly Cloudy
5:51 AM7.2 °C4.4 °C82 %1026.1 hPa16.1 kmWest (280°)9.3 km/hScattered Clouds
6:51 AM6.1 °C3.3 °C82 %1027.4 hPa16.1 kmWNW (300°)7.4 km/hMostly Cloudy
7:51 AM5 °C2.2 °C82 %1028.4 hPa16.1 kmWest (280°)7.4 km/hMostly Cloudy
8:51 AM8.9 °C3.3 °C68 %1028.8 hPa16.1 kmWNW (290°)11.1 km/hMostly Cloudy
9:51 AM10.6 °C2.2 °C56 %1029.8 hPa16.1 kmWest (280°)9.3 km/hMostly Cloudy
10:51 AM12.2 °C1.1 °C47 %1030.1 hPa16.1 kmNNW (330°)7.4 km/hMostly Cloudy
11:51 AM13 °C1 °C44 %1029.5 hPa16.1 kmNNW (340°)14.8 km/hMostly Cloudy
12:51 PM13.3 °C1.1 °C44 %1029.5 hPa16.1 kmNW (320°)9.3 km/hMostly Cloudy
1:51 PM14.4 °C0.6 °C39 %1029.5 hPa16.1 kmNW (310°)9.3 km/hMostly Cloudy
2:51 PM13.3 °C-0.6 °C39 %1029.8 hPa16.1 kmNNW (330°)20.4 km/hMostly Cloudy
3:51 PM12.2 °C-1.1 °C40 %1030.5 hPa16.1 kmNNW (330°)11.1 km/hMostly Cloudy
4:51 PM10 °C-1.7 °C44 %1030.5 hPa16.1 kmNorth (350°)5.6 km/hOvercast
5:51 PM8.3 °C-1.1 °C52 %1031.5 hPa16.1 kmCalmOvercast
6:51 PM8.9 °C-0.6 °C52 %1032.2 hPa16.1 kmNE (40°)9.3 km/hOvercast
7:51 PM8.9 °C-0.6 °C52 %1032.2 hPa16.1 kmNE (40°)14.8 km/hOvercast
8:51 PM7.2 °C-1.1 °C56 %1032.2 hPa16.1 kmENE (60°)11.1 km/hOvercast
9:51 PM4.4 °C-1.1 °C68 %1032.5 hPa16.1 kmEast (100°)9.3 km/hOvercast
10:51 PM6.7 °C0 °C63 %1032.2 hPa16.1 kmEast (90°)13 km/hOvercast
11:51 PM5.6 °C-0.6 °C65 %1031.8 hPa16.1 kmSE (130°)11.1 km/hOvercast
Hourly data recorded from KSTL, located 14.63 kilometers away from Chesterfield, Missouri







STORIES FROM OUR PARTNERS